Contract 0x2609334dc5d6efbaa18744100f46dd42a7ac8ed8 1

 
Txn Hash Method
Block
From
To
Value [Txn Fee]
0xb266a849889f3f9c11185dacc484b5188a8ea0c6cfc2da94bbbe9a07ca8d02f20x6080604052933672022-01-31 20:37:25750 days 17 hrs ago0xdc021db6c3a4ab14715f146001a029cbb4841c26 IN  Contract Creation0 ETH0.002610283138 ETH1.056498802
[ Download CSV Export 
Latest 25 internal transaction
Parent Txn Hash Block From To Value
0xf67fb7ac24b1025bd12fa21c37ec3d50b4297b2820313f32d2217e627f4b868e719926312023-03-21 3:51:39337 days 10 hrs ago 0x6f668117caa90ea73c27adc562f5a2a06cca9092 0x2609334dc5d6efbaa18744100f46dd42a7ac8ed80 ETH
0xf67fb7ac24b1025bd12fa21c37ec3d50b4297b2820313f32d2217e627f4b868e719926312023-03-21 3:51:39337 days 10 hrs ago 0x6f668117caa90ea73c27adc562f5a2a06cca9092 0x2609334dc5d6efbaa18744100f46dd42a7ac8ed80 ETH
0xf67fb7ac24b1025bd12fa21c37ec3d50b4297b2820313f32d2217e627f4b868e719926312023-03-21 3:51:39337 days 10 hrs ago 0x6f668117caa90ea73c27adc562f5a2a06cca9092 0x2609334dc5d6efbaa18744100f46dd42a7ac8ed80 ETH
0xf67fb7ac24b1025bd12fa21c37ec3d50b4297b2820313f32d2217e627f4b868e719926312023-03-21 3:51:39337 days 10 hrs ago 0x6f668117caa90ea73c27adc562f5a2a06cca9092 0x2609334dc5d6efbaa18744100f46dd42a7ac8ed80 ETH
0x46ffc5a4a90d8a10d8487d00b2193c8cbc90b29ffb9516b5556782c6e7f2ae07718058192023-03-20 14:46:55337 days 23 hrs ago 0x6f668117caa90ea73c27adc562f5a2a06cca9092 0x2609334dc5d6efbaa18744100f46dd42a7ac8ed80 ETH
0x46ffc5a4a90d8a10d8487d00b2193c8cbc90b29ffb9516b5556782c6e7f2ae07718058192023-03-20 14:46:55337 days 23 hrs ago 0x6f668117caa90ea73c27adc562f5a2a06cca9092 0x2609334dc5d6efbaa18744100f46dd42a7ac8ed80 ETH
0x408b2c52c76b60154471b56344a7eb7aaae0f5a2a33db139bbd769bc1aefe013717730512023-03-20 12:32:26338 days 1 hr ago 0x6f668117caa90ea73c27adc562f5a2a06cca9092 0x2609334dc5d6efbaa18744100f46dd42a7ac8ed80 ETH
0x408b2c52c76b60154471b56344a7eb7aaae0f5a2a33db139bbd769bc1aefe013717730512023-03-20 12:32:26338 days 1 hr ago 0x6f668117caa90ea73c27adc562f5a2a06cca9092 0x2609334dc5d6efbaa18744100f46dd42a7ac8ed80 ETH
0x4508632f2bbfba4e2a7a325359cb61bc7f9fb44faf7d018558098d61f3f7aac3717444392023-03-20 10:35:18338 days 3 hrs ago 0x6f668117caa90ea73c27adc562f5a2a06cca9092 0x2609334dc5d6efbaa18744100f46dd42a7ac8ed80 ETH
0x4508632f2bbfba4e2a7a325359cb61bc7f9fb44faf7d018558098d61f3f7aac3717444392023-03-20 10:35:18338 days 3 hrs ago 0x6f668117caa90ea73c27adc562f5a2a06cca9092 0x2609334dc5d6efbaa18744100f46dd42a7ac8ed80 ETH
0xe9e67b6650765187efdc056df94e36530f107b4fc77e782a2d558dc8890081f6717437792023-03-20 10:32:30338 days 3 hrs ago 0x6f668117caa90ea73c27adc562f5a2a06cca9092 0x2609334dc5d6efbaa18744100f46dd42a7ac8ed80 ETH
0xe9e67b6650765187efdc056df94e36530f107b4fc77e782a2d558dc8890081f6717437792023-03-20 10:32:30338 days 3 hrs ago 0x6f668117caa90ea73c27adc562f5a2a06cca9092 0x2609334dc5d6efbaa18744100f46dd42a7ac8ed80 ETH
0x526da9bb64770ec2f10b19c36baaa3d51f8991fb9ec7ee026316377ef061c206715282282023-03-19 19:25:10338 days 18 hrs ago 0x6f668117caa90ea73c27adc562f5a2a06cca9092 0x2609334dc5d6efbaa18744100f46dd42a7ac8ed80 ETH
0x526da9bb64770ec2f10b19c36baaa3d51f8991fb9ec7ee026316377ef061c206715282282023-03-19 19:25:10338 days 18 hrs ago 0x6f668117caa90ea73c27adc562f5a2a06cca9092 0x2609334dc5d6efbaa18744100f46dd42a7ac8ed80 ETH
0x77fb71f710a83b0d4fd81d644c47736bf4ad8f388cc8302552e1af7f0f1136b3714793272023-03-19 16:02:33338 days 22 hrs ago 0x6f668117caa90ea73c27adc562f5a2a06cca9092 0x2609334dc5d6efbaa18744100f46dd42a7ac8ed80 ETH
0x77fb71f710a83b0d4fd81d644c47736bf4ad8f388cc8302552e1af7f0f1136b3714793272023-03-19 16:02:33338 days 22 hrs ago 0x6f668117caa90ea73c27adc562f5a2a06cca9092 0x2609334dc5d6efbaa18744100f46dd42a7ac8ed80 ETH
0x2a2c23c582d7d69e66e46dc3ce6c974b89362dea96c7fa126bf6832f7f59972d714313662023-03-19 12:43:54339 days 1 hr ago 0x6f668117caa90ea73c27adc562f5a2a06cca9092 0x2609334dc5d6efbaa18744100f46dd42a7ac8ed80 ETH
0x2a2c23c582d7d69e66e46dc3ce6c974b89362dea96c7fa126bf6832f7f59972d714313662023-03-19 12:43:54339 days 1 hr ago 0x6f668117caa90ea73c27adc562f5a2a06cca9092 0x2609334dc5d6efbaa18744100f46dd42a7ac8ed80 ETH
0xd24654e2be5f27cbb27bcc6aca23e7ddbe42960577dca15bd3ea36d04a6272ec713614752023-03-19 7:52:48339 days 6 hrs ago 0x6f668117caa90ea73c27adc562f5a2a06cca9092 0x2609334dc5d6efbaa18744100f46dd42a7ac8ed80 ETH
0xd24654e2be5f27cbb27bcc6aca23e7ddbe42960577dca15bd3ea36d04a6272ec713614752023-03-19 7:52:48339 days 6 hrs ago 0x6f668117caa90ea73c27adc562f5a2a06cca9092 0x2609334dc5d6efbaa18744100f46dd42a7ac8ed80 ETH
0x9983f6af450f22b4699f5c076e357c5cbb3bcc609a71f509b99061df72a2e9c1713530812023-03-19 7:17:39339 days 6 hrs ago 0x6f668117caa90ea73c27adc562f5a2a06cca9092 0x2609334dc5d6efbaa18744100f46dd42a7ac8ed80 ETH
0x9983f6af450f22b4699f5c076e357c5cbb3bcc609a71f509b99061df72a2e9c1713530812023-03-19 7:17:39339 days 6 hrs ago 0x6f668117caa90ea73c27adc562f5a2a06cca9092 0x2609334dc5d6efbaa18744100f46dd42a7ac8ed80 ETH
0x169a93dc1638b5a4ebc741971c7f2c812e2280812d26c05e8a38680a91856c97713460072023-03-19 6:47:57339 days 7 hrs ago 0x6f668117caa90ea73c27adc562f5a2a06cca9092 0x2609334dc5d6efbaa18744100f46dd42a7ac8ed80 ETH
0x169a93dc1638b5a4ebc741971c7f2c812e2280812d26c05e8a38680a91856c97713460072023-03-19 6:47:57339 days 7 hrs ago 0x6f668117caa90ea73c27adc562f5a2a06cca9092 0x2609334dc5d6efbaa18744100f46dd42a7ac8ed80 ETH
0x8e3c994d267e52defa1190ceb33bde1c86b8c9efa59e1272f7efddcaa8c60431713010532023-03-19 3:37:09339 days 10 hrs ago 0x6f668117caa90ea73c27adc562f5a2a06cca9092 0x2609334dc5d6efbaa18744100f46dd42a7ac8ed80 ETH
[ Download CSV Export 
Loading
Are you the contract creator? Verify and Publish your contract source code today!

Decompile ByteCode
0x608060405234801561001057600080fd5b50600436106100575760003560e01c8063313ce5671461005c57806354fd4d501461007a5780637284e416146100945780639a6fc8f514610111578063feaf968c14610173575b600080fd5b61006461017b565b6040805160ff9092168252519081900360200190f35b610082610184565b60408051918252519081900360200190f35b61009c610189565b6040805160208082528351818301528351919283929083019185019080838360005b838110156100d65781810151838201526020016100be565b50505050905090810190601f1680156101035780820380516001836020036101000a031916815260200191505b509250505060405180910390f35b6101376004803603602081101561012757600080fd5b50356001600160501b03166101b5565b604080516001600160501b0396871681526020810195909552848101939093526060840191909152909216608082015290519081900360a00190f35b6101376101c4565b60005460ff1681565b600090565b6040805180820190915260128152714669786564207072696365206f7261636c6560701b602082015290565b50600154600091829042908290565b60015460009182904290829056fea265627a7a723158209b59e0deae7c02e0fa70806161ddb40dc47bb7da4deedae159129383f17f3a3664736f6c63430005110032
Block Transaction Gas Used Reward
Age Block Fee Address BC Fee Address Voting Power Jailed Incoming
Block Uncle Number Difficulty Gas Used Reward
Loading
Make sure to use the "Vote Down" button for any spammy posts, and the "Vote Up" for interesting conversations.